Location: Unspecified
(0.0000°N, 0.0000°E)
Time: 21:55:26
(UTC+00:00)

YUBILEINY - Pass Details

Date: 15 December 2017
Orbit: 1478 x 1509 km, 82.5° (Epoch: 18 January)

Event Time Altitude Azimuth Distance (km) Brightness Sun altitude
Rises 02:58:58 0° 190° (S) 4,617 ? -39.7°
Reaches altitude 10° 03:01:51 10° 192° (SSW) 3,639 ? -39.1°
Enters shadow 03:06:58 40° 205° (SSW) 2,091 ? -38.0°
